TimeEST,TemperatureF,Dew PointF,Humidity,Sea Level PressureIn,VisibilityMPH,Wind Direction,Wind SpeedMPH,Gust SpeedMPH,PrecipitationIn,Events,Conditions,WindDirDegrees,DateUTC
12:15 AM,14.0,12.2,93,30.01,10.0,ENE,6.9,-,N/A,,Overcast,70,2013-01-26 05:15:00
12:35 AM,14.0,12.2,93,30.01,10.0,ENE,5.8,-,N/A,,Overcast,70,2013-01-26 05:35:00
12:55 AM,14.0,12.2,93,30.01,10.0,East,8.1,-,N/A,,Overcast,90,2013-01-26 05:55:00
1:15 AM,12.2,10.4,92,30.02,6.0,ENE,5.8,-,N/A,,Overcast,70,2013-01-26 06:15:00
1:35 AM,12.2,12.2,100,30.02,5.0,ENE,5.8,-,N/A,,Overcast,70,2013-01-26 06:35:00
1:55 AM,12.2,12.2,100,30.02,4.0,East,5.8,-,N/A,,Overcast,80,2013-01-26 06:55:00
2:15 AM,12.2,12.2,100,30.04,3.0,ENE,4.6,-,N/A,,Overcast,60,2013-01-26 07:15:00
2:35 AM,12.2,12.2,100,30.04,3.0,East,5.8,-,N/A,,Overcast,80,2013-01-26 07:35:00
2:55 AM,12.2,10.4,92,30.05,9.0,ENE,4.6,-,N/A,,Overcast,70,2013-01-26 07:55:00
3:15 AM,12.2,10.4,92,30.06,10.0,ENE,4.6,-,N/A,,Overcast,60,2013-01-26 08:15:00
3:35 AM,12.2,10.4,92,30.06,10.0,ENE,4.6,-,N/A,,Overcast,60,2013-01-26 08:35:00
3:55 AM,12.2,10.4,92,30.07,9.0,ENE,4.6,-,N/A,,Overcast,60,2013-01-26 08:55:00
4:15 AM,12.2,10.4,92,30.07,7.0,NNE,3.5,-,N/A,,Overcast,30,2013-01-26 09:15:00
4:35 AM,12.2,10.4,92,30.08,10.0,Calm,Calm,-,N/A,,Overcast,0,2013-01-26 09:35:00
4:55 AM,10.4,8.6,92,30.09,10.0,Calm,Calm,-,N/A,,Overcast,0,2013-01-26 09:55:00
5:15 AM,10.4,10.4,100,30.09,10.0,Calm,Calm,-,N/A,,Overcast,0,2013-01-26 10:15:00
5:35 AM,10.4,8.6,92,30.10,10.0,North,3.5,-,N/A,,Overcast,10,2013-01-26 10:35:00
5:55 AM,8.6,6.8,92,30.11,10.0,NNE,3.5,-,N/A,,Scattered Clouds,20,2013-01-26 10:55:00
6:15 AM,8.6,6.8,92,30.12,10.0,Calm,Calm,-,N/A,,Mostly Cloudy,0,2013-01-26 11:15:00
6:35 AM,6.8,5.0,92,30.12,10.0,Calm,Calm,-,N/A,,Scattered Clouds,0,2013-01-26 11:35:00
6:55 AM,5.0,3.2,92,30.13,9.0,Calm,Calm,-,N/A,,Clear,0,2013-01-26 11:55:00
7:15 AM,5.0,3.2,92,30.13,10.0,Calm,Calm,-,N/A,,Clear,0,2013-01-26 12:15:00
7:35 AM,3.2,1.4,92,30.15,1.5,Calm,Calm,-,N/A,,Clear,0,2013-01-26 12:35:00
7:55 AM,3.2,1.4,92,30.15,0.5,Calm,Calm,-,N/A,,Unknown,0,2013-01-26 12:55:00
8:15 AM,1.4,-0.4,92,30.16,0.2,Calm,Calm,-,N/A,,Mostly Cloudy,0,2013-01-26 13:15:00
8:35 AM,3.2,1.4,92,30.17,7.0,Calm,Calm,-,N/A,,Clear,0,2013-01-26 13:35:00
8:55 AM,8.6,6.8,92,30.18,8.0,Calm,Calm,-,N/A,,Clear,0,2013-01-26 13:55:00
9:15 AM,12.2,10.4,92,30.19,6.0,Calm,Calm,-,N/A,,Clear,0,2013-01-26 14:15:00
9:35 AM,14.0,12.2,93,30.20,8.0,Calm,Calm,-,N/A,,Clear,0,2013-01-26 14:35:00
9:55 AM,17.6,15.8,93,30.21,9.0,Calm,Calm,-,N/A,,Clear,0,2013-01-26 14:55:00
10:15 AM,19.4,15.8,86,30.23,10.0,North,4.6,-,N/A,,Clear,10,2013-01-26 15:15:00
10:35 AM,19.4,14.0,80,30.24,10.0,NNE,3.5,-,N/A,,Clear,30,2013-01-26 15:35:00
11:15 AM,19.4,14.0,80,30.26,10.0,Calm,Calm,-,N/A,,Clear,0,2013-01-26 16:15:00
11:35 AM,24.8,15.8,69,30.27,10.0,Calm,Calm,-,N/A,,Clear,0,2013-01-26 16:35:00
11:55 AM,21.2,14.0,74,30.28,10.0,NNE,3.5,-,N/A,,Clear,20,2013-01-26 16:55:00
12:15 PM,24.8,15.8,69,30.27,10.0,Calm,Calm,-,N/A,,Clear,0,2013-01-26 17:15:00
12:35 PM,28.4,17.6,64,30.27,10.0,Calm,Calm,-,N/A,,Clear,0,2013-01-26 17:35:00
12:55 PM,26.6,17.6,69,30.27,10.0,Calm,Calm,-,N/A,,Clear,0,2013-01-26 17:55:00
1:15 PM,26.6,15.8,64,30.27,10.0,Calm,Calm,-,N/A,,Clear,0,2013-01-26 18:15:00
1:35 PM,28.4,17.6,64,30.27,10.0,Calm,Calm,-,N/A,,Clear,0,2013-01-26 18:35:00
1:55 PM,28.4,15.8,59,30.27,10.0,Calm,Calm,-,N/A,,Clear,0,2013-01-26 18:55:00
2:15 PM,32.0,15.8,51,30.28,2.5,Calm,Calm,-,N/A,,Clear,0,2013-01-26 19:15:00
2:35 PM,26.6,15.8,64,30.28,10.0,Calm,Calm,-,N/A,,Scattered Clouds,0,2013-01-26 19:35:00
2:55 PM,30.2,17.6,60,30.29,10.0,Calm,Calm,-,N/A,,Mostly Cloudy,0,2013-01-26 19:55:00
3:15 PM,30.2,15.8,55,30.29,10.0,Calm,Calm,-,N/A,,Mostly Cloudy,0,2013-01-26 20:15:00
3:35 PM,26.6,14.0,59,30.30,10.0,Calm,Calm,-,N/A,,Partly Cloudy,0,2013-01-26 20:35:00
3:55 PM,24.8,14.0,64,30.30,10.0,Calm,Calm,-,N/A,,Scattered Clouds,0,2013-01-26 20:55:00
4:15 PM,23.0,14.0,68,30.30,10.0,West,3.5,-,N/A,,Scattered Clouds,270,2013-01-26 21:15:00
4:35 PM,23.0,14.0,68,30.30,10.0,Calm,Calm,-,N/A,,Clear,0,2013-01-26 21:35:00
4:55 PM,23.0,12.2,63,30.31,10.0,Calm,Calm,-,N/A,,Clear,0,2013-01-26 21:55:00
5:15 PM,19.4,12.2,74,30.31,10.0,Calm,Calm,-,N/A,,Clear,0,2013-01-26 22:15:00
5:35 PM,17.6,8.6,68,30.31,10.0,Calm,Calm,-,N/A,,Clear,0,2013-01-26 22:35:00
5:55 PM,15.8,8.6,73,30.32,10.0,Calm,Calm,-,N/A,,Clear,0,2013-01-26 22:55:00
6:15 PM,12.2,6.8,79,30.33,10.0,Calm,Calm,-,N/A,,Clear,0,2013-01-26 23:15:00
6:35 PM,12.2,8.6,85,30.33,10.0,ESE,3.5,-,N/A,,Clear,120,2013-01-26 23:35:00
6:55 PM,10.4,10.4,100,30.33,10.0,SE,3.5,-,N/A,,Clear,130,2013-01-26 23:55:00
7:15 PM,12.2,10.4,92,30.34,10.0,SSE,3.5,-,N/A,,Clear,160,2013-01-27 00:15:00
7:35 PM,12.2,10.4,92,30.34,10.0,SSE,4.6,-,N/A,,Clear,160,2013-01-27 00:35:00
7:55 PM,10.4,8.6,92,30.34,10.0,SSE,4.6,-,N/A,,Clear,150,2013-01-27 00:55:00
8:15 PM,10.4,10.4,100,30.34,10.0,SE,5.8,-,N/A,,Clear,140,2013-01-27 01:15:00
8:35 PM,10.4,10.4,100,30.34,10.0,SE,6.9,-,N/A,,Clear,130,2013-01-27 01:35:00
8:55 PM,12.2,10.4,92,30.33,10.0,SSE,5.8,-,N/A,,Clear,150,2013-01-27 01:55:00
9:15 PM,12.2,12.2,100,30.34,10.0,SSE,4.6,-,N/A,,Partly Cloudy,150,2013-01-27 02:15:00
9:35 PM,12.2,10.4,92,30.33,10.0,SE,4.6,-,N/A,,Mostly Cloudy,130,2013-01-27 02:35:00
9:55 PM,12.2,10.4,92,30.34,10.0,SE,5.8,-,N/A,,Overcast,140,2013-01-27 02:55:00
10:15 PM,14.0,12.2,93,30.34,10.0,SE,5.8,-,N/A,,Overcast,140,2013-01-27 03:15:00
10:35 PM,15.8,14.0,93,30.35,10.0,SE,5.8,-,N/A,,Mostly Cloudy,140,2013-01-27 03:35:00
10:55 PM,15.8,14.0,93,30.34,10.0,ESE,4.6,-,N/A,,Partly Cloudy,120,2013-01-27 03:55:00
11:15 PM,15.8,14.0,93,30.35,10.0,SE,5.8,-,N/A,,Scattered Clouds,140,2013-01-27 04:15:00
11:35 PM,15.8,14.0,93,30.35,10.0,SE,5.8,-,N/A,,Mostly Cloudy,140,2013-01-27 04:35:00
11:55 PM,15.8,14.0,93,30.35,10.0,SE,5.8,-,N/A,,Mostly Cloudy,140,2013-01-27 04:55:00